Regional Weather Roundup
Issued by NWS

Home | Current Version | Previous Version | Graphics & Text | Print | Product List | Glossary On
Versions: 1 2 3 4 5 6 7 8 9 10 11 12 13 14 15 16 17 18 19 20 21 22 23 24 25 26 27 28 29 30 31 32 33 34 35 36 37 38 39 40 41 42 43 44 45 46 47 48 49 50
000
ASUS43 KMPX 272101
RWRMN
WEATHER ROUNDUP FOR MINNESOTA
NATIONAL WEATHER SERVICE TWIN CITIES/CHANHASSEN MN
400 PM CDT WED JUL 27 2016


NOTE: "FAIR" INDICATES FEW OR NO CLOUDS BELOW 12,000 FEET WITH NO
SIGNIFICANT WEATHER AND/OR OBSTRUCTIONS TO VISIBILITY. N/A MEANS
CURRENT SKY AND/OR WEATHER CONDITIONS ARE NOT AVAILABLE.

MNZ060>063-068>070-272200-
   Twin Cities Metro

CITY           SKY/WX    TMP DP  RH WIND       PRES   REMARKS
TWIN CITIES    CLOUDY    72  68  87 NW12      29.93R
ST PAUL        TSTM      69  67  93 N20G26    29.93R VSB 3/4
CRYSTAL        LGT RAIN  70  66  87 N12       29.94R
BLAINE         CLOUDY    70  68  94 NE10      29.95R
LAKEVILLE      RAIN      73  70  88 W3        29.93S
EDEN PRAIRIE   TSTM      72  68  87 N9        29.93R FOG
LAKEVILLE      RAIN      73  70  88 W3        29.93S
SOUTH ST PAUL  CLOUDY    74  67  78 NW3       29.91F
LAKE ELMO      CLOUDY    68  64  88 N15G26    29.96R
$$
MNZ001>005-007-008-013>017-022>024-027-028-272200-
   Northwest Minnesota

CITY           SKY/WX    TMP DP  RH WIND       PRES   REMARKS
BEMIDJI        CLOUDY    70  63  78 E8        30.03S
HALLOCK        MOSUNNY   75  59  57 N14       30.07F
ROSEAU         SUNNY     77  63  61 NE9       30.06R
WARROAD        SUNNY     75  64  69 NE10      30.06F
THIEF RVR FALL PTSUNNY   77  61  57 N14       30.05R
CROOKSTON      MOSUNNY   77  61  57 N17       30.04F
FOSSTON        PTSUNNY   81  61  50 NW9       30.03S
DETROIT LAKES  SUNNY     75  61  60 NW16      30.04R
MOORHEAD       SUNNY     75  61  60 N13G18    30.03F
PARK RAPIDS    PTSUNNY   76  62  62 NE9       30.02S
MAHNOMEN       FAIR      76  59  54 NW10      30.03S
$$
MNZ006-009>011-018-025>026-272200-
   North Central Minnesota

CITY           SKY/WX    TMP DP  RH WIND       PRES   REMARKS
BAUDETTE       CLOUDY    77  60  55 N10       30.04F
FLAG ISLAND    SUNNY     72  55  56 N15       30.07S
INTL FALLS     SUNNY     77  57  50 NE8       30.04F
WASKISH        CLOUDY    79  61  53 E10       30.03S
BIG FORK       PTSUNNY   72  63  73 CALM      30.05S
LONGVILLE      CLOUDY    72  64  78 N3        30.03R
GRAND RAPIDS   PTSUNNY   70  62  76 VRB6      30.04S
CRANE LAKE     CLOUDY    72  57  60 CALM      30.05F
ORR            CLOUDY    73  57  56 CALM      30.02S
COOK           MOSUNNY   72  61  68 E3        30.04F
WALKER         MOCLDY    71  63  76 N6        30.03S
$$
MNZ012-019>021-037-272200-
   Northeast Minnesota

CITY           SKY/WX    TMP DP  RH WIND       PRES   REMARKS
DULUTH         CLOUDY    64  59  83 SE14      30.02F
ELY            CLOUDY    70  59  68 NE3       30.04F
HIBBING        CLOUDY    69  62  78 E8        30.03F
EVELETH        CLOUDY    68  60  76 NE8       30.04F
DULUTH HARBOR  CLOUDY    63  61  94 NE18      30.03S
TWO HARBORS    CLOUDY    64  61  88 NE7       30.02R
SILVER BAY     CLOUDY    63  61  94 NE5       30.03F
GRAND MARAIS     N/A     65  54  67 E5        30.05S
G MARAIS ARPRT CLOUDY    61  52  72 SE5       30.08S
$$
MNZ029>031-032-039>041-046>048-054>057-064-272200-
   West Central Minnesota

CITY           SKY/WX    TMP DP  RH WIND       PRES   REMARKS
FERGUS FALLS   SUNNY     79  59  50 N16G23    30.02S
WHEATON        SUNNY     81  61  50 N12G21    30.03S
MORRIS         MOSUNNY   81  64  57 N14       29.99S
ALEXANDRIA     MOSUNNY   78  62  57 N12G21    30.02R
ELBOW LAKE     FAIR      76  63  62 N12G17    30.01S
WADENA         MOSUNNY   73  63  68 N6        30.01S
GLENWOOD       MOSUNNY   75  64  69 N13       30.00S
APPLETON       MOSUNNY   81  63  54 N14G21    29.99R
BENSON         MOSUNNY   79  63  57 N14G23    29.99R
ORTONVILLE     MOSUNNY   79  64  61 N13       30.00F
MADISON        MOSUNNY   79  63  57 N14       29.99S
WILLMAR        FAIR      81  66  61 NW14      29.98S
$$
MNZ033>034-036-042>043-049>051-058-059-272200-
   Central Minnesota

CITY           SKY/WX    TMP DP  RH WIND       PRES   REMARKS
ST CLOUD       PTSUNNY   75  65  70 NW8       29.96S
SAUK CENTRE    MOCLDY    76  64  68 N12       29.99S
PAYNESVILLE    CLOUDY    75  65  71 N9        29.98R
AITKIN         CLOUDY    72  61  68 NE3       30.00R
PINE RIVER     MOSUNNY   73  64  73 N12       30.04
BRAINERD       LGT RAIN  72  65  78 N9        30.00R
STAPLES        PTSUNNY   73  63  68 N7        30.01S
LONG PRAIRIE   PTSUNNY   73  63  68 NW8       30.00S
LITTLE FALLS   CLOUDY    72  63  73 CALM      30.00R
LITCHFIELD     LGT RAIN  75  72  88 N9        29.97R
BUFFALO        CLOUDY    73  65  75 N9        29.96F
MAPLE LAKE     CLOUDY    74  67  79 N9        29.97F
HUTCHINSON     CLOUDY    78  70  75 N8G18     29.96S
$$
MNZ037-044-045-052-053-272200-
   East Central Minnesota

CITY           SKY/WX    TMP DP  RH WIND       PRES   REMARKS
PRINCETON      CLOUDY    73  70  88 N7        29.97S
MORA           CLOUDY    64  63  94 CALM      29.99S
CAMBRIDGE      CLOUDY    70  63  78 CALM      29.95F
RUSH CITY      CLOUDY    66  65  94 NE6       29.97R
MOOSE LAKE     CLOUDY    63  59  88 NE8       29.98F
HINCKLEY       CLOUDY    64  63  94 NE6       29.98S
CLOQUET        CLOUDY    64  55  72 E15G22    30.01F
MCGREGOR       CLOUDY    68  63  83 E5        30.02R
$$
MNZ071>073-080-081-089-090-097-098-272200-
   Southwest Minnesota

CITY           SKY/WX    TMP DP  RH WIND       PRES   REMARKS
MONTEVIDEO     MOSUNNY   81  66  61 N13       30.01R
GRANITE FALLS  MOSUNNY   82  69  66 NW15G22   29.99S
CANBY          MOSUNNY   80  66  60 NE10      30.02R
MARSHALL       MOSUNNY   79  66  64 N12       29.99S
REDWOOD FALLS  MOSUNNY   80  63  55 NW12      29.96S
OLIVIA         PTSUNNY   79  68  69 NW8       29.96S
PIPESTONE      MOSUNNY   82  63  51 N10       30.02R
WINDOM         MOSUNNY   81  66  61 NW8       29.98S
WORTHINGTON    MOSUNNY   80  68  66 NW10      30.00S
JACKSON        MOSUNNY   81  64  57 NW8       29.98S
TRACY          MOSUNNY   80  68  66 NW12      29.99S
SLAYTON        MOSUNNY   80  65  59 N7        30.01S HAZE
$$
MNZ065>067-074>077-082>085-091>093-272200-
   South Central Minnesota

CITY           SKY/WX    TMP DP  RH WIND       PRES   REMARKS
MANKATO        CLOUDY    81  68  65 NW15      29.93S
NEW ULM        MOSUNNY   81  66  61 NW12G17   29.94F
ST JAMES       MOSUNNY   75  64  69 NW12      29.95F
FAIRMONT       PTSUNNY   82  66  57 NW12      29.94F
GLENCOE        LGT RAIN  79  70  74 N8        29.94S
FARIBAULT      CLOUDY    79  70  73 SW7       29.94S
OWATONNA       MOSUNNY   81  66  61 S10       29.93F
WASECA         PTSUNNY   77  68  73 SW14      29.94F
ALBERT LEA     MOSUNNY   81  66  61 SW10G16   29.95F
$$
MNZ078>079-086>088-094>096-272200-
   Southeast Minnesota

CITY           SKY/WX    TMP DP  RH WIND       PRES   REMARKS
ROCHESTER      SUNNY     80  68  66 S16G23    29.96F
RED WING       CLOUDY    82  66  57 SW8G16    29.91F
STANTON        PTSUNNY   79  68  69 SW8       29.92F
DODGE CENTER   MOSUNNY   81  66  61 SW13G20   29.95F
WINONA         CLOUDY    81  66  61 SW8       29.93F
AUSTIN         SUNNY     81  66  61 S16       29.95F
PRESTON        MOSUNNY   80  66  63 SW10G16   29.97F
$$
ABBREVIATIONS USED IN REMARKS
   TC - TEMPERATURES IN CELSIUS
  WCI - WIND CHILL INDEX
   HX - HEAT INDEX
  VSB - VISIBILITY
$$




USA.gov is the U.S. government's official web portal to all federal, state and local government web resources and services.